ウィリアムズ彗星

C/1998 P1 ( Williams )

English version
Home page
Updated on September 15, 1999

---------------------------------------------------------------------

・ プロフィール

発見日 1998年8月10日
発見光度 9.5等
発見者 Peter Williams (Heathcote, Australia)

・ 写真集

・ 軌道要素

   The following improved orbital elements by Kenji Muraoka, are
  from 398 observations  1998 Aug. 11  to  1999 May 15, including 
  9 Planet and 5 minor planets perturbations and non-gravitational
  effect of style II ( A1 , A2 , A3 ).
   The mean residual is  +/- 0.76 arc seconds.

      Epoch  =  1998 Nov.  3.0  TT       JDT = 2451120.5
          T  =  1998 Oct. 17.84580       +/- 0.00027 (m.e.) TT
       Peri. =  294.46742                +/- 0.00040
       Node  =  156.37090                +/- 0.00018   (2000.0)
       Incl. =  145.72753                +/- 0.00006
          q  =    1.1462029              +/- 0.0000068 AU
          e  =    0.9987446              +/- 0.0000104
        1/a  =   +0.0010953              +/- 0.0000091 1/AU
         A1  =  +31.441                  +/- 0.283
         A2  =   +2.14839                +/- 0.10776
         A3  =   -1.03488                +/- 0.03907
        ( P  =  27588 years )

・ 星図

・ 光度変化

        m1 = 6.0 + 5 logΔ + 10.0 log r  [   ,  0]  (              〜1998年10月17日)
        m1 = 7.6 + 5 logΔ +  6.6 log r  [  0,150]  (1998年10月17日〜1999年 3月16日)
        m1 = 8.7 + 5 logΔ + 10   log r  [150,   ]  (1999年 3月16日〜              )

---------------------------------------------------------------------

軌道要素は村岡健治氏の計算によるものです。
星図は StellaNavigator Ver.2.0 for Windows (アストロアーツ 編著 / アスキー出版局刊) で作成したものです。
光度グラフはComet for Windowsで作成したものです。

---------------------------------------------------------------------

Copyright(C) Seiichi Yoshida (comet@aerith.net). All rights reserved.